| time (UTC) | temp F | wind direction | speed MPH | gust MPH | rain 1hr in | rain 24hr in | rain mn in | humidity % | barometer mb |
| 20260906110030 | 64 | 157 | 0.0 | 0.0 | 0.00 | 0.54 | 0.00 | 95 | 1012.2 |
| 20260906104527 | 64 | 156 | 0.0 | 0.0 | 0.00 | 0.54 | 0.00 | 95 | 1011.9 |
| 20260906103026 | 64 | 157 | 0.0 | 0.0 | 0.00 | 0.54 | 0.00 | 95 | 1011.9 |
| 20260906101524 | 64 | 157 | 0.0 | 0.0 | 0.00 | 0.54 | 0.00 | 95 | 1011.7 |
| 20260906100026 | 64 | 157 | 0.0 | 0.0 | 0.00 | 0.54 | 0.00 | 95 | 1011.6 |
| 20260906094523 | 64 | 157 | 0.0 | 0.0 | 0.00 | 0.54 | 0.00 | 95 | 1011.6 |
| 20260906093023 | 64 | 157 | 0.0 | 0.0 | 0.00 | 0.54 | 0.00 | 95 | 1011.5 |
| 20260906091530 | 65 | 156 | 0.0 | 0.0 | 0.00 | 0.54 | 0.00 | 95 | 1011.4 |
| 20260906090021 | 64 | 156 | 0.0 | 0.0 | 0.00 | 0.54 | 0.00 | 95 | 1011.5 |
| 20260906084524 | 65 | 156 | 1.0 | 2.0 | 0.00 | 0.54 | 0.00 | 95 | 1011.6 |
| 20260906083019 | 65 | 156 | 0.0 | 1.0 | 0.00 | 0.54 | 0.00 | 95 | 1011.3 |
| 20260906081519 | 65 | 157 | 1.0 | 3.0 | 0.00 | 0.54 | 0.00 | 95 | 1011.2 |
| 20260906080018 | 65 | 157 | 0.0 | 2.0 | 0.00 | 0.54 | 0.00 | 95 | 1011.2 |
| 20260906074515 | 65 | 157 | 0.0 | 0.0 | 0.00 | 0.55 | 0.00 | 95 | 1011.1 |
| 20260906073017 | 66 | 157 | 0.0 | 0.0 | 0.00 | 0.55 | 0.00 | 95 | 1011.2 |
| 20260906071513 | 66 | 157 | 0.0 | 0.0 | 0.00 | 0.55 | 0.00 | 95 | 1011.2 |
| 20260906070015 | 66 | 157 | 0.0 | 0.0 | 0.00 | 0.55 | 0.00 | 95 | 1011.2 |
| 20260906064520 | 66 | 157 | 0.0 | 0.0 | 0.00 | 0.55 | 0.00 | 95 | 1011.1 |
| 20260906063010 | 67 | 157 | 0.0 | 0.0 | 0.00 | 0.55 | 0.00 | 95 | 1011.3 |
| 20260906061509 | 67 | 156 | 0.0 | 0.0 | 0.00 | 0.55 | 0.00 | 95 | 1011.4 |
| 20260906060010 | 67 | 156 | 0.0 | 0.0 | 0.00 | 0.55 | 0.00 | 95 | 1011.3 |
| 20260906054507 | 67 | 156 | 0.0 | 0.0 | 0.00 | 0.55 | 0.00 | 95 | 1011.2 |
| 20260906053007 | 67 | 157 | 0.0 | 0.0 | 0.00 | 0.55 | 0.00 | 95 | 1011.2 |
| 20260906051506 | 66 | 157 | 0.0 | 0.0 | 0.00 | 0.55 | 0.00 | 95 | 1011.4 |
| 20260906050012 | 66 | 157 | 0.0 | 0.0 | 0.00 | 0.55 | 0.00 | 95 | 1011.3 |
| 20260906044505 | 66 | 157 | 0.0 | 0.0 | 0.00 | 0.55 | 0.00 | 95 | 1011.4 |
| 20260906043003 | 67 | 157 | 0.0 | 0.0 | 0.00 | 0.55 | 0.00 | 94 | 1011.5 |
| 20260906041600 | 67 | 157 | 0.0 | 0.0 | 0.00 | 0.55 | 0.00 | 94 | 1011.7 |
| 20260906040100 | 67 | 144 | 0.0 | 0.0 | 0.00 | 0.55 | 0.00 | 94 | 1011.7 |
| 20260906040002 | 67 | 144 | 0.0 | 0.0 | 0.00 | 0.55 | 0.00 | 94 | 1011.7 |
| 20260906034601 | 67 | 144 | 0.0 | 0.0 | 0.00 | 0.55 | 0.55 | 94 | 1011.7 |
| 20260906033057 | 67 | 144 | 0.0 | 0.0 | 0.00 | 0.55 | 0.55 | 94 | 1011.9 |
| 20260906031622 | 67 | 144 | 0.0 | 0.0 | 0.00 | 0.55 | 0.55 | 94 | 1012.2 |
| 20260906030056 | 68 | 144 | 0.0 | 2.0 | 0.01 | 0.55 | 0.55 | 94 | 1012.2 |
| 20260906024559 | 68 | 346 | 0.0 | 0.0 | 0.01 | 0.55 | 0.55 | 94 | 1012.2 |
| 20260906023109 | 68 | 346 | 0.0 | 0.0 | 0.03 | 0.55 | 0.55 | 94 | 1012.1 |
| 20260906021556 | 68 | 346 | 0.0 | 2.0 | 0.03 | 0.55 | 0.55 | 94 | 1011.9 |
| 20260906020059 | 68 | 346 | 0.0 | 1.0 | 0.02 | 0.54 | 0.54 | 93 | 1012.2 |
| 20260906014552 | 68 | 346 | 0.0 | 0.0 | 0.09 | 0.54 | 0.54 | 93 | 1012.2 |
| 20260906013053 | 68 | 346 | 0.0 | 0.0 | 0.07 | 0.52 | 0.52 | 93 | 1011.8 |
| 20260906011556 | 68 | 346 | 0.0 | 1.0 | 0.07 | 0.52 | 0.52 | 92 | 1011.4 |
| 20260906010053 | 69 | 346 | 0.0 | 3.0 | 0.07 | 0.52 | 0.52 | 92 | 1010.9 |
| 20260906004557 | 70 | 351 | 0.0 | 2.0 | 0.00 | 0.45 | 0.45 | 92 | 1010.8 |
| 20260906003053 | 70 | 351 | 0.0 | 0.0 | 0.00 | 0.45 | 0.45 | 91 | 1010.6 |
| 20260906001551 | 71 | 351 | 0.0 | 0.0 | 0.00 | 0.45 | 0.45 | 90 | 1010.6 |
| 20260906000058 | 71 | 351 | 0.0 | 0.0 | 0.00 | 0.45 | 0.45 | 90 | 1010.6 |
| 20260905234548 | 72 | 350 | 0.0 | 0.0 | 0.00 | 0.45 | 0.45 | 88 | 1010.5 |
| 20260905233051 | 73 | 350 | 0.0 | 0.0 | 0.00 | 0.45 | 0.45 | 86 | 1010.6 |
| 20260905231549 | 74 | 350 | 0.0 | 0.0 | 0.00 | 0.45 | 0.45 | 84 | 1010.8 |
| 20260905230047 | 74 | 351 | 0.0 | 2.0 | 0.00 | 0.45 | 0.45 | 82 | 1010.7 |
| 20260905224547 | 75 | 351 | 0.0 | 3.0 | 0.00 | 0.45 | 0.45 | 78 | 1010.7 |
| 20260905223045 | 76 | 335 | 2.0 | 4.0 | 0.00 | 0.45 | 0.45 | 75 | 1010.6 |
| 20260905221559 | 77 | 271 | 0.0 | 3.0 | 0.00 | 0.45 | 0.45 | 74 | 1010.5 |
| 20260905220045 | 77 | 345 | 1.0 | 4.0 | 0.00 | 0.45 | 0.45 | 73 | 1010.4 |
| 20260905214544 | 77 | 18 | 1.0 | 2.0 | 0.00 | 0.45 | 0.45 | 72 | 1010.1 |
| 20260905213044 | 78 | 333 | 1.0 | 4.0 | 0.00 | 0.45 | 0.45 | 71 | 1010.1 |
| 20260905211543 | 78 | 324 | 1.0 | 3.0 | 0.00 | 0.45 | 0.45 | 70 | 1010.1 |
| 20260905210044 | 78 | 318 | 2.0 | 8.0 | 0.00 | 0.45 | 0.45 | 69 | 1010.2 |
| 20260905204543 | 78 | 327 | 2.0 | 5.0 | 0.00 | 0.47 | 0.45 | 69 | 1010.1 |
| 20260905203041 | 78 | 22 | 1.0 | 4.0 | 0.00 | 0.47 | 0.45 | 70 | 1010.2 |
| 20260905201539 | 77 | 344 | 2.0 | 5.0 | 0.00 | 0.47 | 0.45 | 71 | 1010.4 |
| 20260905200041 | 79 | 345 | 2.0 | 6.0 | 0.00 | 0.47 | 0.45 | 67 | 1010.5 |
| 20260905194535 | 78 | 318 | 3.0 | 8.0 | 0.00 | 1.13 | 0.45 | 67 | 1010.6 |
| 20260905193040 | 78 | 13 | 2.0 | 5.0 | 0.00 | 1.13 | 0.45 | 69 | 1010.7 |
| 20260905191531 | 78 | 339 | 2.0 | 5.0 | 0.00 | 1.13 | 0.45 | 70 | 1011.0 |
| 20260905190040 | 78 | 340 | 3.0 | 6.0 | 0.00 | 1.13 | 0.45 | 71 | 1011.0 |
| 20260905184532 | 78 | 17 | 2.0 | 5.0 | 0.00 | 1.15 | 0.45 | 72 | 1011.3 |
| 20260905183028 | 78 | 355 | 2.0 | 4.0 | 0.00 | 1.15 | 0.45 | 70 | 1011.4 |
| 20260905181525 | 77 | 19 | 3.0 | 8.0 | 0.00 | 1.15 | 0.45 | 73 | 1011.7 |
| 20260905180030 | 77 | 322 | 3.0 | 6.0 | 0.00 | 1.15 | 0.45 | 76 | 1011.8 |
| 20260905174523 | 77 | 341 | 3.0 | 10.0 | 0.00 | 1.15 | 0.45 | 76 | 1011.9 |
| 20260905173020 | 74 | 34 | 1.0 | 6.0 | 0.00 | 1.15 | 0.45 | 83 | 1011.7 |
| 20260905171521 | 75 | 355 | 1.0 | 4.0 | 0.00 | 1.15 | 0.45 | 81 | 1011.7 |
| 20260905170016 | 74 | 32 | 0.0 | 3.0 | 0.00 | 1.15 | 0.45 | 83 | 1011.9 |
| 20260905164513 | 74 | 355 | 0.0 | 3.0 | 0.00 | 1.15 | 0.45 | 86 | 1012.1 |
| 20260905163009 | 72 | 175 | 0.0 | 2.0 | 0.00 | 1.15 | 0.45 | 92 | 1012.1 |
| 20260905161511 | 70 | 340 | 0.0 | 3.0 | 0.00 | 1.15 | 0.45 | 95 | 1012.4 |
| 20260905160006 | 69 | 355 | 1.0 | 5.0 | 0.01 | 1.15 | 0.45 | 96 | 1012.8 |
| 20260905154501 | 69 | 14 | 1.0 | 3.0 | 0.01 | 1.15 | 0.45 | 96 | 1012.3 |
| 20260905153059 | 69 | 297 | 0.0 | 3.0 | 0.02 | 1.15 | 0.45 | 96 | 1011.9 |
| 20260905151558 | 67 | 156 | 0.0 | 5.0 | 0.04 | 1.15 | 0.45 | 96 | 1011.4 |
| 20260905150057 | 67 | 156 | 1.0 | 3.0 | 0.06 | 1.14 | 0.44 | 96 | 1011.9 |
| 20260905144557 | 67 | 148 | 0.0 | 5.0 | 0.09 | 1.14 | 0.44 | 96 | 1012.2 |
| 20260905143058 | 67 | 161 | 0.0 | 2.0 | 0.12 | 1.13 | 0.43 | 96 | 1012.8 |
| 20260905141555 | 67 | 184 | 2.0 | 5.0 | 0.14 | 1.11 | 0.40 | 96 | 1013.0 |
| 20260905140153 | 67 | 162 | 2.0 | 3.0 | 0.18 | 1.09 | 0.38 | 96 | 1013.6 |
| 20260905134600 | 68 | 294 | 0.0 | 3.0 | 0.17 | 1.06 | 0.35 | 96 | 1014.0 |
| 20260905133051 | 68 | 330 | 0.0 | 2.0 | 0.30 | 1.02 | 0.31 | 96 | 1013.9 |
| 20260905131547 | 68 | 311 | 0.0 | 2.0 | 0.25 | 0.97 | 0.26 | 96 | 1013.7 |
| 20260905130046 | 68 | 10 | 2.0 | 6.0 | 0.19 | 0.91 | 0.20 | 96 | 1013.5 |
| 20260905124547 | 67 | 178 | 0.0 | 4.0 | 0.17 | 0.89 | 0.18 | 96 | 1012.6 |
| 20260905123043 | 67 | 153 | 0.0 | 1.0 | 0.00 | 0.72 | 0.01 | 96 | 1012.3 |
| 20260905121545 | 67 | 153 | 0.0 | 1.0 | 0.00 | 0.72 | 0.01 | 96 | 1011.8 |
| 20260905120053 | 67 | 154 | 0.0 | 1.0 | 0.00 | 0.72 | 0.01 | 96 | 1011.7 |
| 20260905114550 | 67 | 154 | 0.0 | 1.0 | 0.00 | 0.72 | 0.01 | 96 | 1011.4 |
| 20260905113046 | 67 | 154 | 0.0 | 0.0 | 0.00 | 0.72 | 0.01 | 96 | 1011.5 |
| 20260905111612 | 66 | 154 | 0.0 | 0.0 | 0.00 | 0.72 | 0.01 | 96 | 1011.5 |